{"data":{"norad_id":49756,"epoch":"2026-09-19T19:26:59.024832Z","epoch_age_seconds":104558,"freshness":"FRESH","line1":"1 49756U 21115AJ  26262.81040538  .00000978  00000+0  40053-4 0  9997","line2":"2 49756  53.1603 332.7169 0001224  83.4461 276.6681 15.34409452265182","mean_motion":15.34409452,"eccentricity":0.0001224,"inclination_deg":53.1603,"raan_deg":332.7169,"arg_perigee_deg":83.4461,"mean_anomaly_deg":276.6681,"bstar":4.0053e-5,"rev_number":26518,"period_min":93.847179976834,"perigee_km":461.83783160861,"apogee_km":463.51246242219,"semimajor_km":6840.8121470154,"source":"CELESTRAK","updated_at":"2026-09-20T09:00:39.409899Z"}}